User: anonymous   Login
Location: Oakhurst
(33.6448°N, 111.9543°W)
Time: 22:05:17
(UTC+00:00)
Language:

LEMUR 2 XUENITERENCE - Orbit

View from above orbital plane
View from above orbital plane
View from above satellite
View from above satellite

Ground track
Ground track

The orbit data is extracted from the following two-line orbital elements,

1 42772U 17036H   21338.84942523  .00004838  00000-0  19003-3 0  9992
2 42772  97.2283  21.7825 0011042 288.3920  71.6118 15.26104055247309
Epoch (UTC): 04 December 2021 20:23:10
Eccentricity: 0.0011042
inclination: 97.2283°
perigee height: 480 km
apogee height: 495 km
right ascension of ascending node: 21.7825°
argument of perigee: 288.3920°
revolutions per day: 15.26104055
mean anomaly at epoch: 71.6118°
orbit number at epoch: 24730

The dashed part of the orbit path shows where the satellite is in the earth's shadow,  

DLR